Miscellaneous Local Product
Issued by NWS Hastings, NE

Home | Current Version | Previous Version | Text Only | Print | Product List | Glossary Off
Versions: 1 2 3 4 5 6 7 8 9 10 11 12 13 14 15 16 17 18 19 20 21 22 23 24 25 26 27 28 29 30 31 32 33 34 35 36 37 38 39 40 41 42 43 44 45 46 47 48 49 50

696
AXUS43 KGID 281102
MISGRI

GID CWA HOURLY WEATHER ROUNDUP
NATIONAL WEATHER SERVICE HASTINGS NE
600 AM CDT FRI JUL 28 2017

NOTE: "FAIR" INDICATES FEW OR NO CLOUDS BELOW 12,000 FEET WITH NO
SIGNIFICANT WEATHER AND/OR OBSTRUCTIONS TO VISIBILITY.

...SOUTH CENTRAL NEBRASKA...

CITY           SKY/WX    TMP DP  RH WIND       PRES   REMARKS
GRAND ISLAND   PTCLDY    62  62 100 N5        30.07R FOG
HASTINGS       PTCLDY    62  59  90 CALM      30.07R
KEARNEY        PTCLDY    63  61  93 CALM      30.08S
ORD            CLOUDY    64  62  93 CALM      30.05S
YORK           PTCLDY    61  61 100 CALM      30.06S
AURORA         PTCLDY    60  60 100 CALM      30.06S
LEXINGTON      CLOUDY    66  64  91 CALM      30.09R
HOLDREGE       MOCLDY    62  60  95 CALM      30.07S
HEBRON         PTCLDY    64  62  93 CALM      30.04S

...NEBRASKA PANHANDLE...

CITY           SKY/WX    TMP DP  RH WIND       PRES   REMARKS
CHADRON        CLOUDY    62  59  90 S12       30.06F
ALLIANCE       CLOUDY    63  60  90 MISG      30.10R
SCOTTSBLUFF    CLOUDY    66  61  84 SE3       30.09S
SIDNEY         CLOUDY    64  59  83 SE9       30.11F

...WESTERN AND NORTH CENTRAL NEBRASKA...

CITY           SKY/WX    TMP DP  RH WIND       PRES   REMARKS
VALENTINE      CLOUDY    68  59  73 E8        30.07R
AINSWORTH      MOCLDY    66  63  89 CALM      30.08R
ONEILL         CLOUDY    67  65  96 CALM      30.08S
BROKEN BOW     MOCLDY    65  62  90 SE5       30.07S
IMPERIAL       LGT RAIN  65  62  90 E10       30.07F
NORTH PLATTE   CLOUDY    68  63  84 SE12      30.04F
MCCOOK         CLOUDY    67  63  87 N5        30.10R

...EASTERN NEBRASKA...

CITY           SKY/WX    TMP DP  RH WIND       PRES   REMARKS
NORFOLK        CLOUDY    67  61  81 CALM      30.06R
SO SIOUX CITY  PTCLDY    62  62 100 W5        30.06R
TEKAMAH        CLEAR     64  61  90 N6        30.04R
COLUMBUS       CLOUDY    64  63  96 E3        30.06R
ALBION         CLOUDY    67  65  93 CALM      30.06F
OMAHA EPPLEY   PTCLDY    65  62  90 NW5       30.04R
OFFUTT AFB     PTCLDY    63  61  94 CALM      30.03R
MILLARD        CLEAR     68  65  93 CALM      30.03S
LINCOLN        CLEAR     63  62  97 N6        30.04R
NEBRASKA CITY  CLEAR     65  65 100 N5        30.02R
BEATRICE       PTCLDY    64  62  93 NE5       30.03S
FALLS CITY     CLEAR     67  63  87 N5        30.00R

...NORTHERN KANSAS...

CITY           SKY/WX    TMP DP  RH WIND       PRES   REMARKS
GOODLAND       PTCLDY    66  63  90 S15       30.07F
HILL CITY      PTCLDY    63  61  93 E3        30.05S
NORTON         SUNNY     61  55  82 N5        30.07R
PHILLIPSBURG   CLEAR     64  64 100 NE6       30.05F
SMITH CENTER   CLEAR     61  61 100 CALM      30.06R
HAYS           PTCLDY    65  62  90 NE3       30.05S
RUSSELL        PTCLDY    64  62  93 N3        30.03R
CONCORDIA      CLOUDY    65  64  97 N3        30.02R
SALINA         CLOUDY    69  65  86 NW6       30.01R
TOPEKA         PTCLDY    70  68  93 N3        29.97R



USA.gov is the U.S. government's official web portal to all federal, state and local government web resources and services.